• In Deutschland
  • Länderverzeichnis
  • Für 7 Tage
  • Wassertemperatur
  • Satellitenkarten
  • Wetterkarte
  • Widgets
  • user-avatar
    Anmelden

    Stündliche Wetter Aue

    Heute, 25 Mai, Freitag

    Zeit Temperatur Niederschläge Wind Luftdruck Luftfeuchtigkeit
    00:00 +15°C° 0,4 mm 2 m/S 720 mmHg 94%
    01:00 +14°C° 0 mm 1 m/S 720 mmHg 94%
    02:00 +14°C° 0,1 mm 1 m/S 720 mmHg 94%
    03:00 +13°C° 0,1 mm 1 m/S 720 mmHg 94%
    04:00 +13°C° 0,1 mm 1 m/S 720 mmHg 94%
    05:00 +14°C° 0 mm 1 m/S 720 mmHg 92%
    06:00 +15°C° 0 mm 1 m/S 720 mmHg 91%
    07:00 +16°C° 0 mm 2 m/S 720 mmHg 89%
    08:00 +17°C° 0,5 mm 2 m/S 720 mmHg 85%
    09:00 +18°C° 0,5 mm 2 m/S 721 mmHg 82%
    10:00 +19°C° 0,5 mm 3 m/S 721 mmHg 79%
    11:00 +20°C° 0,8 mm 3 m/S 721 mmHg 77%
    12:00 +20°C° 0,8 mm 3 m/S 720 mmHg 75%
    13:00 +21°C° 0,8 mm 3 m/S 720 mmHg 73%
    14:00 +21°C° 0,7 mm 3 m/S 720 mmHg 73%
    15:00 +21°C° 0,7 mm 3 m/S 720 mmHg 73%
    16:00 +21°C° 0,7 mm 3 m/S 720 mmHg 72%
    17:00 +20°C° 0,3 mm 2 m/S 720 mmHg 76%
    18:00 +19°C° 0,3 mm 2 m/S 720 mmHg 80%
    19:00 +18°C° 0,3 mm 2 m/S 720 mmHg 83%
    20:00 +17°C° 0 mm 2 m/S 720 mmHg 85%
    21:00 +15°C° 0 mm 2 m/S 720 mmHg 88%
    22:00 +14°C° 0 mm 2 m/S 720 mmHg 90%
    23:00 +14°C° 0 mm 1 m/S 720 mmHg 91%

    Morgen, 26 Mai, Samstag

    Zeit Temperatur Niederschläge Wind Luftdruck Luftfeuchtigkeit
    00:00 +13°C° 0 mm 1 m/S 721 mmHg 91%
    01:00 +13°C° 0 mm 1 m/S 721 mmHg 92%
    02:00 +13°C° 0 mm 1 m/S 721 mmHg 92%
    03:00 +12°C° 0 mm 1 m/S 721 mmHg 93%
    04:00 +12°C° 0 mm 1 m/S 721 mmHg 93%
    05:00 +14°C° 0 mm 1 m/S 721 mmHg 90%
    06:00 +15°C° 0 mm 1 m/S 722 mmHg 87%
    07:00 +18°C° 0 mm 1 m/S 722 mmHg 84%
    08:00 +19°C° 0 mm 1 m/S 722 mmHg 76%
    09:00 +21°C° 0 mm 1 m/S 723 mmHg 68%
    10:00 +23°C° 0 mm 2 m/S 723 mmHg 60%
    11:00 +23°C° 0 mm 2 m/S 723 mmHg 57%
    12:00 +24°C° 0 mm 2 m/S 723 mmHg 55%
    13:00 +25°C° 0 mm 2 m/S 723 mmHg 53%
    14:00 +24°C° 0 mm 2 m/S 722 mmHg 54%
    15:00 +24°C° 0 mm 2 m/S 722 mmHg 56%
    16:00 +24°C° 0 mm 2 m/S 722 mmHg 57%
    17:00 +23°C° 0,1 mm 2 m/S 722 mmHg 64%
    18:00 +21°C° 0,1 mm 2 m/S 722 mmHg 70%
    19:00 +20°C° 0,1 mm 2 m/S 722 mmHg 76%
    20:00 +19°C° 0 mm 1 m/S 722 mmHg 79%
    21:00 +18°C° 0 mm 1 m/S 722 mmHg 82%
    22:00 +15°C° 0 mm 1 m/S 722 mmHg 84%
    23:00 +15°C° 0 mm 1 m/S 722 mmHg 85%

    übermorgen, 27 Mai, Sonntag

    Zeit Temperatur Niederschläge Wind Luftdruck Luftfeuchtigkeit
    00:00 +14°C° 0 mm 1 m/S 721 mmHg 85%
    01:00 +14°C° 0 mm 1 m/S 721 mmHg 85%
    02:00 +13°C° 0 mm 1 m/S 721 mmHg 86%
    03:00 +13°C° 0 mm 1 m/S 721 mmHg 87%
    04:00 +13°C° 0 mm 1 m/S 721 mmHg 88%
    05:00 +14°C° 0 mm 1 m/S 721 mmHg 84%
    06:00 +16°C° 0 mm 1 m/S 722 mmHg 79%
    07:00 +19°C° 0 mm 1 m/S 722 mmHg 75%
    08:00 +21°C° 0 mm 1 m/S 722 mmHg 70%
    09:00 +21°C° 0 mm 2 m/S 722 mmHg 64%
    10:00 +24°C° 0 mm 2 m/S 722 mmHg 59%
    11:00 +24°C° 0 mm 2 m/S 722 mmHg 56%
    12:00 +25°C° 0 mm 2 m/S 722 mmHg 53%
    13:00 +26°C° 0 mm 2 m/S 722 mmHg 50%
    14:00 +26°C° 0 mm 3 m/S 721 mmHg 52%
    15:00 +26°C° 0 mm 3 m/S 721 mmHg 53%
    16:00 +26°C° 0 mm 3 m/S 720 mmHg 55%
    17:00 +25°C° 0,1 mm 3 m/S 720 mmHg 61%
    18:00 +23°C° 0,1 mm 2 m/S 720 mmHg 68%
    19:00 +21°C° 0,1 mm 2 m/S 720 mmHg 74%
    20:00 +20°C° 0 mm 2 m/S 720 mmHg 76%
    21:00 +18°C° 0 mm 2 m/S 720 mmHg 77%
    22:00 +17°C° 0 mm 2 m/S 720 mmHg 78%
    23:00 +16°C° 0 mm 2 m/S 720 mmHg 80%

    28 Mai, Montag

    Zeit Temperatur Niederschläge Wind Luftdruck Luftfeuchtigkeit
    00:00 +16°C° 0 mm 2 m/S 720 mmHg 82%
    01:00 +16°C° 0 mm 2 m/S 720 mmHg 84%
    02:00 +15°C° 0 mm 2 m/S 720 mmHg 87%
    03:00 +15°C° 0 mm 2 m/S 720 mmHg 89%
    04:00 +15°C° 0 mm 1 m/S 720 mmHg 91%
    05:00 +16°C° 0 mm 2 m/S 720 mmHg 87%
    06:00 +18°C° 0 mm 2 m/S 721 mmHg 83%
    07:00 +19°C° 0 mm 2 m/S 721 mmHg 79%
    08:00 +21°C° 0 mm 2 m/S 721 mmHg 74%
    09:00 +24°C° 0 mm 3 m/S 721 mmHg 68%
    10:00 +25°C° 0 mm 4 m/S 721 mmHg 63%
    11:00 +26°C° 0 mm 4 m/S 721 mmHg 61%
    12:00 +27°C° 0 mm 4 m/S 721 mmHg 58%
    13:00 +27°C° 0 mm 4 m/S 721 mmHg 56%
    14:00 +27°C° 0,2 mm 4 m/S 720 mmHg 57%
    15:00 +27°C° 0,2 mm 4 m/S 720 mmHg 59%
    16:00 +27°C° 0,2 mm 4 m/S 720 mmHg 60%
    17:00 +26°C° 0,1 mm 4 m/S 720 mmHg 66%
    18:00 +25°C° 0,1 mm 3 m/S 719 mmHg 72%
    19:00 +22°C° 0,1 mm 3 m/S 719 mmHg 78%
    20:00 +21°C° 0 mm 3 m/S 719 mmHg 82%
    21:00 +20°C° 0 mm 3 m/S 719 mmHg 86%
    22:00 +19°C° 0 mm 3 m/S 719 mmHg 89%
    23:00 +18°C° 0 mm 3 m/S 719 mmHg 91%

    29 Mai, Dienstag

    Zeit Temperatur Niederschläge Wind Luftdruck Luftfeuchtigkeit
    00:00 +18°C° 0 mm 3 m/S 719 mmHg 92%
    01:00 +17°C° 0 mm 3 m/S 719 mmHg 94%
    02:00 +17°C° 0 mm 2 m/S 718 mmHg 94%
    03:00 +16°C° 0 mm 2 m/S 718 mmHg 95%
    04:00 +16°C° 0 mm 2 m/S 718 mmHg 95%
    05:00 +17°C° 0 mm 3 m/S 718 mmHg 92%
    06:00 +18°C° 0 mm 3 m/S 718 mmHg 89%
    07:00 +19°C° 0 mm 4 m/S 718 mmHg 86%
    08:00 +21°C° 0 mm 4 m/S 718 mmHg 82%
    09:00 +22°C° 0 mm 4 m/S 718 mmHg 78%
    10:00 +23°C° 0 mm 4 m/S 718 mmHg 73%
    11:00 +25°C° 0 mm 4 m/S 718 mmHg 68%
    12:00 +27°C° 0 mm 4 m/S 718 mmHg 64%
    13:00 +28°C° 0 mm 4 m/S 718 mmHg 59%
    14:00 +28°C° 0,4 mm 4 m/S 717 mmHg 61%
    15:00 +28°C° 0,4 mm 4 m/S 717 mmHg 62%
    16:00 +28°C° 0,4 mm 4 m/S 716 mmHg 64%
    17:00 +27°C° 0,4 mm 4 m/S 716 mmHg 69%
    18:00 +25°C° 0,4 mm 4 m/S 716 mmHg 74%
    19:00 +23°C° 0,4 mm 4 m/S 716 mmHg 79%
    20:00 +22°C° 0,5 mm 4 m/S 716 mmHg 82%
    21:00 +21°C° 0,5 mm 4 m/S 716 mmHg 84%
    22:00 +20°C° 0,5 mm 4 m/S 716 mmHg 87%
    23:00 +19°C° 0 mm 3 m/S 716 mmHg 88%

    30 Mai, Mittwoch

    Zeit Temperatur Niederschläge Wind Luftdruck Luftfeuchtigkeit
    00:00 +19°C° 0 mm 3 m/S 715 mmHg 89%
    01:00 +18°C° 0 mm 3 m/S 715 mmHg 89%
    02:00 +18°C° 0 mm 3 m/S 715 mmHg 90%
    03:00 +17°C° 0 mm 3 m/S 715 mmHg 91%
    04:00 +17°C° 0 mm 3 m/S 715 mmHg 91%
    05:00 +18°C° 0,1 mm 3 m/S 715 mmHg 89%
    06:00 +19°C° 0,1 mm 3 m/S 715 mmHg 87%
    07:00 +19°C° 0,1 mm 3 m/S 715 mmHg 84%
    08:00 +21°C° 0,1 mm 3 m/S 716 mmHg 79%
    09:00 +22°C° 0,1 mm 3 m/S 716 mmHg 74%
    10:00 +25°C° 0,1 mm 3 m/S 716 mmHg 70%
    11:00 +25°C° 0,7 mm 3 m/S 716 mmHg 69%
    12:00 +26°C° 0,7 mm 3 m/S 716 mmHg 68%
    13:00 +27°C° 0,7 mm 3 m/S 716 mmHg 68%
    14:00 +26°C° 1,2 mm 2 m/S 716 mmHg 71%
    15:00 +26°C° 1,2 mm 2 m/S 716 mmHg 74%
    16:00 +25°C° 1,2 mm 1 m/S 715 mmHg 78%
    17:00 +24°C° 0,4 mm 2 m/S 715 mmHg 81%
    18:00 +23°C° 0,4 mm 2 m/S 715 mmHg 84%
    19:00 +21°C° 0,4 mm 2 m/S 715 mmHg 87%
    20:00 +21°C° 0,3 mm 2 m/S 715 mmHg 88%
    21:00 +20°C° 0,3 mm 2 m/S 715 mmHg 88%
    22:00 +19°C° 0,3 mm 2 m/S 715 mmHg 89%
    23:00 +18°C° 0,2 mm 2 m/S 715 mmHg 90%
    Mehr zeigen